This demonstration page uses our WeatherBlox Daily Observations layout. Learn more.

Left ArrowRight Arrow

Hourly Observations for March 5, 2015

Temp ( °F °C ) Dew Point ( °F °C ) Humidity (%) Winds ( mph kmh ) Pressure ( in mb ) Visibility ( mi km ) Precip ( " mm )
12:15 am 00:15 Cloudy with Light Rain 39 4 39 4 100 100 N 9 15 30.00 1016 10 16 N/A
12:35 am 00:35 Cloudy with Light Rain 39 4 39 4 100 100 N 8 13 30.00 1016 10 16 N/A
12:55 am 00:55 Cloudy with Light Rain 39 4 37 3 93 93 N 6 9 30.00 1016 10 16 N/A
1:15 am 01:15 Cloudy with Light Rain 39 4 37 3 93 93 NNW 14 22 30.03 1017 5 8 0.01 0.25
1:35 am 01:35 Cloudy with Light Rain 37 3 37 3 100 100 N 13 20 30.03 1017 7 11 0.02 0.51
1:55 am 01:55 Cloudy with Rain 37 3 37 3 100 100 N 9 15 30.03 1017 7 11 0.02 0.51
2:15 am 02:15 Cloudy with Light Rain 37 3 37 3 100 100 N 13 20 30.03 1017 10 16 N/A
2:35 am 02:35 Cloudy with Drizzle 37 3 36 2 93 93 NNW 10 17 30.03 1017 10 16 N/A
2:55 am 02:55 Cloudy with Light Rain 37 3 36 2 93 93 N 8 13 30.00 1016 5 8 0.01 0.25
3:15 am 03:15 Cloudy with Drizzle 36 2 36 2 100 100 NNW 12 19 30.03 1017 10 16 N/A
3:35 am 03:35 Cloudy with Light Rain 36 2 36 2 100 100 NNW 10 17 30.03 1017 7 11 N/A
3:55 am 03:55 Cloudy with Light Rain 36 2 36 2 100 100 NNW 13 20 30.03 1017 7 11 0.01 0.25
4:15 am 04:15 Cloudy with Light Rain 36 2 36 2 100 100 N 9 15 30.03 1017 10 16 N/A
4:35 am 04:35 Cloudy 36 2 36 2 100 100 N 12 19 30.06 1018 10 16 N/A
4:55 am 04:55 Cloudy 36 2 34 1 93 93 NNW 18 30 30.06 1018 10 16 N/A
5:15 am 05:15 Cloudy with Light Rain 36 2 34 1 93 93 NNW 16 26 30.06 1018 7 11 N/A
5:35 am 05:35 Cloudy with Light Rain 36 2 34 1 93 93 NNW 14 22 30.09 1019 4 6 N/A
5:55 am 05:55 Cloudy with Light Snow 34 1 34 1 100 100 NNW 17 28 30.09 1019 4 6 0.01 0.25
6:15 am 06:15 Cloudy with Light Snow 34 1 34 1 100 100 NNW 16 26 30.12 1020 3 5 0.01 0.25
6:35 am 06:35 Cloudy with Light Snow 34 1 34 1 100 100 N 16 26 30.12 1020 3 5 0.01 0.25
6:55 am 06:55 Cloudy with Light Snow 34 1 34 1 100 100 N 16 26 30.12 1020 3 4 0.01 0.25
7:15 am 07:15 Cloudy with Light Snow 32 undefined 32 undefined 100 100 N 17 28 30.12 1020 1 2 N/A
7:35 am 07:35 Cloudy with Light Snow 32 undefined 32 undefined 100 100 N 18 30 30.15 1021 1 2 N/A
7:55 am 07:55 Cloudy with Light Snow 32 undefined 32 undefined 100 100 N 12 19 30.15 1021 1 1 N/A
8:15 am 08:15 Cloudy with Light Snow 32 undefined 32 undefined 100 100 N 12 19 30.18 1022 1 2 N/A
8:35 am 08:35 Cloudy with Light Snow 32 undefined 32 undefined 100 100 N 13 20 30.15 1021 1 1 N/A
8:55 am 08:55 Cloudy with Light Snow 32 undefined 32 undefined 100 100 N 13 20 30.18 1022 1 1 N/A
9:15 am 09:15 Cloudy with Snow 30 -1 30 -1 100 100 N 12 19 30.18 1022 1 1 N/A
9:35 am 09:35 Cloudy with Snow 32 undefined 32 undefined 100 100 N 9 15 30.18 1022 1 1 N/A
9:55 am 09:55 Cloudy with Snow 30 -1 30 -1 100 100 N 10 17 30.18 1022 1 1 N/A
10:15 am 10:15 Cloudy with Snow 30 -1 30 -1 100 100 N 14 22 30.21 1023 1 1 N/A
10:35 am 10:35 Cloudy with Snow 30 -1 30 -1 100 100 N 10 17 30.21 1023 0 0 N/A
10:55 am 10:55 Cloudy with Snow 30 -1 30 -1 100 100 N 10 17 30.21 1023 1 1 N/A
12:15 pm 12:15 Cloudy with Light Snow 28 -2 28 -2 100 100 NNW 14 22 30.21 1023 1 2 N/A
12:35 pm 12:35 Cloudy with Light Snow 28 -2 28 -2 100 100 NNW 12 19 30.21 1023 1 2 N/A
12:55 pm 12:55 Cloudy with Light Snow 28 -2 28 -2 100 100 NNW 12 19 30.24 1024 1 1 N/A
1:15 pm 13:15 Cloudy with Snow 28 -2 28 -2 100 100 N 12 19 30.24 1024 1 1 N/A
2:15 pm 14:15 Cloudy with Snow 27 -3 27 -3 100 100 N 8 13 30.24 1024 1 1 N/A
2:35 pm 14:35 Cloudy with Snow 27 -3 27 -3 100 100 N 9 15 30.24 1024 1 1 N/A
2:55 pm 14:55 Cloudy with Snow 27 -3 27 -3 100 100 N 7 11 30.24 1024 1 1 N/A
3:15 pm 15:15 Cloudy with Snow 27 -3 27 -3 100 100 N 5 7 30.24 1024 1 1 N/A
3:35 pm 15:35 Cloudy with Snow 27 -3 27 -3 100 100 N 8 13 30.24 1024 1 1 N/A
3:55 pm 15:55 Cloudy with Light Snow 27 -3 27 -3 100 100 NNW 14 22 30.27 1025 1 1 N/A
4:15 pm 16:15 Cloudy with Light Snow 27 -3 27 -3 100 100 NNW 7 11 30.27 1025 2 3 N/A
4:35 pm 16:35 Cloudy with Light Snow 27 -3 27 -3 100 100 NNW 9 15 30.30 1026 4 6 N/A
4:55 pm 16:55 Cloudy with Light Snow 27 -3 27 -3 100 100 NNW 12 19 30.30 1026 7 11 N/A
5:15 pm 17:15 Cloudy with Mist and Fog 27 -3 25 -4 93 93 N 10 17 30.30 1026 4 6 N/A
5:35 pm 17:35 Cloudy 27 -3 23 -5 86 86 NNW 14 22 30.30 1026 7 11 N/A
5:55 pm 17:55 Cloudy with Mist and Fog 27 -3 23 -5 86 86 NNW 13 20 30.33 1027 5 8 N/A
6:15 pm 18:15 Cloudy 27 -3 23 -5 86 86 N 12 19 30.33 1027 10 16 N/A
6:35 pm 18:35 Cloudy 27 -3 21 -6 80 80 N 9 15 30.36 1028 10 16 N/A
6:55 pm 18:55 Cloudy 27 -3 21 -6 80 80 NNW 7 11 30.36 1028 10 16 N/A
7:15 pm 19:15 Cloudy 27 -3 21 -6 80 80 NNW 14 22 30.36 1028 10 16 N/A
7:35 pm 19:35 Cloudy with Light Snow 27 -3 21 -6 80 80 NNW 13 20 30.39 1029 10 16 N/A
7:55 pm 19:55 Cloudy with Light Snow 25 -4 19 -7 80 80 NNW 16 26 30.39 1029 10 16 N/A
8:15 pm 20:15 Cloudy 25 -4 19 -7 80 80 N 9 15 30.42 1030 10 16 N/A
8:35 pm 20:35 Cloudy 25 -4 18 -8 74 74 N 10 17 30.42 1030 10 16 N/A
8:55 pm 20:55 Cloudy 25 -4 18 -8 74 74 NNW 8 13 30.42 1030 10 16 N/A
9:15 pm 21:15 Cloudy 25 -4 18 -8 74 74 N 10 17 30.45 1031 10 16 N/A
9:35 pm 21:35 Mostly Cloudy 23 -5 16 -9 74 74 NNW 14 22 30.48 1032 10 16 N/A
9:55 pm 21:55 Mostly Cloudy 23 -5 14 -10 68 68 NNW 14 22 30.50 1033 10 16 N/A
10:15 pm 22:15 Mostly Cloudy 23 -5 12 -11 63 63 N 14 22 30.50 1033 10 16 N/A
10:35 pm 22:35 Partly Cloudy 23 -5 12 -11 63 63 NNW 8 13 30.50 1033 10 16 N/A
10:55 pm 22:55 Clear 21 -6 12 -11 68 68 NNW 9 15 30.50 1033 10 16 N/A
11:15 pm 23:15 Clear 21 -6 10 -12 63 63 N 6 9 30.53 1034 10 16 N/A
11:35 pm 23:35 Clear 21 -6 10 -12 63 63 N 7 11 30.53 1034 10 16 N/A
11:55 pm 23:55 Clear 19 -7 9 -13 63 63 NNW 12 19 30.53 1034 10 16 N/A

Powered by AerisWeather